Zurück zum Katalog

OPS 9311

IDSCS 1

AktivMilitärMEO
NORAD 2215·PAYLOAD·🇺🇸 United States

Gestartet Jun 16, 1966 von Cape Canaveral Space Force Station

Loading…

Nächste Überflüge (nächste 24 Stunden)

TLE

AktuellSource: Space-Track

Epoche: Sep 13, 2026, 18:25 UTC

1 02215U 66053B   26256.76803993 -.00000084  00000-0  00000-0 0  9999
2 02215   8.8299  42.7829 0030643 225.5994 134.2308  1.07909198135321

Verfolge OPS 9311 in Echtzeit mit AllMySat

Download on the App Store